Regional Weather Roundup
Issued by NWS

Home | Current Version | Previous Version | Graphics & Text | Print | Product List | Glossary On
Versions: 1 2 3 4 5 6 7 8 9 10 11 12 13 14 15 16 17 18 19 20 21 22 23 24 25 26 27 28 29 30 31 32 33 34 35 36 37 38 39 40 41 42 43 44 45 46 47 48 49 50
000
ASUS43 KFSD 012002
RWRSD

WEATHER ROUNDUP FOR SOUTH DAKOTA
NATIONAL WEATHER SERVICE SIOUX FALLS SD
300 PM CDT MON JUN 01 2015

NOTE: "FAIR" INDICATES FEW OR NO CLOUDS BELOW 12,000 FEET WITH NO
SIGNIFICANT WEATHER AND/OR OBSTRUCTIONS TO VISIBILITY.


SDZ001>005-009-010-012>017-012100-
NORTHWEST AND NORTH CENTRAL SOUTH DAKOTA

CITY           SKY/WX    TMP DP  RH WIND       PRES   REMARKS
BUFFALO          N/A     84  58  40 S20G25    29.80F
FAITH            N/A     80  60  50 SE18      29.88F
MOBRIDGE       SUNNY     81  59  47 S18       29.88F
$$

SDZ012>016-024>037-041>051-057-063-072>074-012100-
SOUTHWEST AND SOUTH CENTRAL SOUTH DAKOTA

CITY           SKY/WX    TMP DP  RH WIND       PRES   REMARKS
RAPID CTY ARPT PTSUNNY   84  60  44 S16G25    29.89F
PIERRE         SUNNY     82  63  52 S18G33    29.89F
CUSTER         MOSUNNY   78  47  33 S9        30.03F
ELLSWORTH AFB  MOSUNNY   82  61  49 S14G24    29.88F
PHILIP         SUNNY     84  59  42 S15       29.88F
PINE RIDGE     MOSUNNY   83  56  39 S15G24    29.92F
WINNER         FAIR      83  58  42 S23G30    29.95F
$$

SDZ004>011-016>023-039-040-012100-
NORTHEAST SOUTH DAKOTA

CITY           SKY/WX    TMP DP  RH WIND       PRES   REMARKS
ABERDEEN       SUNNY     79  58  48 S22G33    29.96F
WATERTOWN      MOSUNNY   74  50  42 S20G28    30.04F
BROOKINGS      MOSUNNY   73  46  38 S21G26    30.07F
SISSETON         N/A     75  48  38 S23G31    30.01F
$$

SDZ017-020-022-023-036>040-048>070-012100-
SOUTHEAST SOUTH DAKOTA

CITY           SKY/WX    TMP DP  RH WIND       PRES   REMARKS
SIOUX FALLS    MOSUNNY   74  51  44 S15G26    30.06F
HURON          MOSUNNY   78  56  46 S22G29    29.98F
CHAMBERLAIN    SUNNY     78  61  56 S22G31    29.95F
MITCHELL       MOSUNNY   80  56  43 S23       30.00F
YANKTON        SUNNY     79  52  38 S17G24    30.02F
$$

ABBREVIATIONS USED IN REMARKS
   TC - TEMPERATURE IN CELSIUS
  WCI - WIND CHILL INDEX
   HX - HEAT INDEX
  VSB - VISIBILITY




USA.gov is the U.S. government's official web portal to all federal, state and local government web resources and services.